Windom, MN

4:10 PM CST on December 15, 2017 (GMT -0600)
Windom Municipal

Weather History for KMWM - August, 2012

Change the Weather History Date:

Sunday, August 5, 2012

  Actual Average Record
Temperature  
Mean Temperature 64 °F -  
Max Temperature 75 °F 82 °F 95 °F (1959)
Min Temperature 53 °F 58 °F 43 °F (1957)
Degree Days  
Heating Degree Days 1    
Growing Degree Days 14 (Base 50)    
Moisture  
Dew Point 54 °F    
Average Humidity 71    
Maximum Humidity 100    
Minimum Humidity 47    
Precipitation  
Precipitation 0.00 in - - ()
Sea Level Pressure  
Sea Level Pressure 30.17 in    
Wind  
Wind Speed 8 mph (WNW)    
Max Wind Speed 14 mph    
Max Gust Speed 20 mph    
Visibility 10 miles    
Events      
Averages and records for this station are not official NWS values.
T = Trace of Precipitation, MM = Missing Value Source: NWS Daily Summary

Daily Weather History Graph

Daily Weather History Graph

Search for Another Location

Airport or City:

Trip Planner

Search our weather history database for the weather conditions in past years. The results will help you decide how hot, cold, wet, or windy it might be!

Date:

Astronomy

Aug. 05, 2012 Rise Set
Actual Time 6:13 AM CDT 8:38 PM CDT
Civil Twilight 5:41 AM CDT 9:10 PM CDT
Nautical Twilight 5:01 AM CDT 9:50 PM CDT
Astronomical Twilight 4:15 AM CDT 10:35 PM CDT
Moon 10:05 PM CDT (8/5) 10:14 AM CDT (8/5)
Length of Visible Light 15h 28m
Length of Day
14h 24m
Waning Gibbous, 86% of the Moon is Illuminated
Aug 5
Waning Gibbous
Aug 9
Last Quarter
Aug 17
New
Aug 24
First Quarter
Aug 31
Full

Hourly Weather History & Observations

Time (CDT) Temp. Dew Point Humidity Pressure Visibility Wind Dir Wind Speed Gust Speed Precip Events Conditions
12:12 AM 62.6 °F 57.2 °F 82% 30.05 in 10.0 mi NW 9.2 mph - N/A   Clear
12:33 AM 62.6 °F 57.2 °F 82% 30.06 in 10.0 mi NW 13.8 mph 17.3 mph N/A   Clear
12:53 AM 62.6 °F 57.2 °F 82% 30.06 in 10.0 mi NW 10.4 mph - N/A   Clear
1:12 AM 60.8 °F 57.2 °F 88% 30.07 in 10.0 mi NW 11.5 mph 16.1 mph N/A   Clear
1:33 AM 60.8 °F 55.4 °F 82% 30.07 in 10.0 mi NW 11.5 mph 19.6 mph N/A   Clear
1:52 AM 60.8 °F 55.4 °F 82% 30.08 in 10.0 mi NW 12.7 mph - N/A   Clear
2:12 AM 59.0 °F 55.4 °F 88% 30.09 in 10.0 mi NW 12.7 mph - N/A   Clear
2:33 AM 57.2 °F 55.4 °F 94% 30.09 in 10.0 mi NW 9.2 mph - N/A   Clear
2:52 AM 57.2 °F 55.4 °F 94% 30.09 in 10.0 mi NW 9.2 mph - N/A   Clear
3:12 AM 57.2 °F 55.4 °F 94% 30.10 in 10.0 mi NW 10.4 mph - N/A   Clear
3:53 AM 57.2 °F 53.6 °F 88% 30.12 in 10.0 mi NW 9.2 mph - N/A   Clear
4:12 AM 55.4 °F 53.6 °F 94% 30.13 in 10.0 mi NW 8.1 mph - N/A   Clear
4:32 AM 55.4 °F 53.6 °F 94% 30.14 in 10.0 mi NW 5.8 mph - N/A   Clear
4:53 AM 55.4 °F 53.6 °F 94% 30.14 in 10.0 mi NW 8.1 mph - N/A   Clear
5:12 AM 55.4 °F 53.6 °F 94% 30.15 in 10.0 mi NW 9.2 mph - N/A   Clear
5:32 AM 53.6 °F 53.6 °F 100% 30.16 in 10.0 mi NW 6.9 mph - N/A   Clear
5:53 AM 53.6 °F 53.6 °F 100% 30.17 in 10.0 mi NW 8.1 mph - N/A   Clear
6:12 AM 53.6 °F 53.6 °F 100% 30.17 in 10.0 mi NW 6.9 mph - N/A   Clear
6:32 AM 53.6 °F 51.8 °F 94% 30.18 in 10.0 mi WNW 5.8 mph - N/A   Clear
6:53 AM 53.6 °F 51.8 °F 94% 30.18 in 10.0 mi NW 5.8 mph - N/A   Clear
7:12 AM 55.4 °F 53.6 °F 94% 30.19 in 10.0 mi NW 5.8 mph - N/A   Clear
7:32 AM 57.2 °F 53.6 °F 88% 30.20 in 10.0 mi NW 6.9 mph - N/A   Clear
7:53 AM 59.0 °F 55.4 °F 88% 30.21 in 10.0 mi WNW 6.9 mph - N/A   Clear
8:12 AM 59.0 °F 55.4 °F 88% 30.21 in 10.0 mi NW 6.9 mph - N/A   Clear
8:32 AM 60.8 °F 55.4 °F 82% 30.22 in 10.0 mi NW 4.6 mph - N/A   Clear
8:53 AM 62.6 °F 55.4 °F 77% 30.22 in 10.0 mi NNW 4.6 mph - N/A   Clear
9:12 AM 62.6 °F 53.6 °F 72% 30.22 in 10.0 mi NW 3.5 mph - N/A   Clear
9:32 AM 64.4 °F 53.6 °F 68% 30.22 in 10.0 mi NW 5.8 mph - N/A   Clear
9:53 AM 64.4 °F 51.8 °F 64% 30.23 in 10.0 mi WNW 6.9 mph - N/A   Clear
10:12 AM 64.4 °F 51.8 °F 64% 30.23 in 10.0 mi NNW 6.9 mph - N/A   Clear
10:32 AM 66.2 °F 50.0 °F 56% 30.24 in 10.0 mi NNW 11.5 mph - N/A   Clear
11:12 AM 66.2 °F 51.8 °F 60% 30.26 in 10.0 mi NW 8.1 mph - N/A   Clear
11:32 AM 68.0 °F 51.8 °F 56% 30.25 in 10.0 mi NNW 9.2 mph - N/A   Clear
11:53 AM 68.0 °F 51.8 °F 56% 30.25 in 10.0 mi WNW 8.1 mph - N/A   Scattered Clouds
12:12 PM 69.8 °F 51.8 °F 53% 30.24 in 10.0 mi WNW 8.1 mph - N/A   Scattered Clouds
12:33 PM 69.8 °F 51.8 °F 53% 30.24 in 10.0 mi NW 5.8 mph - N/A   Clear
12:52 PM 69.8 °F 51.8 °F 53% 30.23 in 10.0 mi WNW 3.5 mph - N/A   Clear
1:12 PM 69.8 °F 51.8 °F 53% 30.22 in 10.0 mi WNW 11.5 mph 16.1 mph N/A   Clear
1:32 PM 69.8 °F 51.8 °F 53% 30.22 in 10.0 mi WSW 6.9 mph - N/A   Clear
1:52 PM 71.6 °F 51.8 °F 50% 30.22 in 10.0 mi WNW 8.1 mph - N/A   Clear
2:13 PM 73.4 °F 53.6 °F 50% 30.22 in 10.0 mi SW 8.1 mph - N/A   Clear
2:52 PM 73.4 °F 51.8 °F 47% 30.21 in 10.0 mi WSW 6.9 mph - N/A   Clear
3:12 PM 73.4 °F 53.6 °F 50% 30.20 in 10.0 mi West 8.1 mph - N/A   Clear
3:32 PM 73.4 °F 51.8 °F 47% 30.19 in 10.0 mi SW 8.1 mph - N/A   Clear
3:53 PM 75.2 °F 53.6 °F 47% 30.18 in 10.0 mi West 6.9 mph - N/A   Clear
4:12 PM 75.2 °F 53.6 °F 47% 30.18 in 10.0 mi SW 8.1 mph - N/A   Clear
4:32 PM 75.2 °F 53.6 °F 47% 30.17 in 10.0 mi SW 6.9 mph - N/A   Clear
4:53 PM 75.2 °F 53.6 °F 47% 30.17 in 10.0 mi West 5.8 mph - N/A   Clear
5:12 PM 75.2 °F 53.6 °F 47% 30.16 in 10.0 mi West 6.9 mph - N/A   Clear
5:32 PM 75.2 °F 53.6 °F 47% 30.16 in 10.0 mi WSW 5.8 mph - N/A   Clear
5:52 PM 75.2 °F 53.6 °F 47% 30.16 in 10.0 mi West 6.9 mph - N/A   Clear
6:12 PM 73.4 °F 53.6 °F 50% 30.15 in 10.0 mi WSW 5.8 mph - N/A   Clear
6:33 PM 73.4 °F 53.6 °F 50% 30.15 in 10.0 mi SW 3.5 mph - N/A   Clear
6:52 PM 73.4 °F 53.6 °F 50% 30.14 in 10.0 mi SW 3.5 mph - N/A   Clear
7:12 PM 73.4 °F 53.6 °F 50% 30.14 in 10.0 mi SW 5.8 mph - N/A   Clear
7:33 PM 73.4 °F 53.6 °F 50% 30.14 in 10.0 mi SW 5.8 mph - N/A   Clear
7:52 PM 71.6 °F 53.6 °F 53% 30.14 in 10.0 mi SW 4.6 mph - N/A   Clear
8:12 PM 71.6 °F 53.6 °F 53% 30.14 in 10.0 mi Calm Calm - N/A   Clear
8:33 PM 69.8 °F 55.4 °F 60% 30.14 in 10.0 mi Calm Calm - N/A   Clear
8:52 PM 68.0 °F 55.4 °F 64% 30.15 in 10.0 mi Calm Calm - N/A   Clear
9:12 PM 66.2 °F 55.4 °F 68% 30.15 in 10.0 mi Calm Calm - N/A   Clear
9:33 PM 64.4 °F 57.2 °F 77% 30.16 in 10.0 mi Calm Calm - N/A   Clear
9:52 PM 64.4 °F 57.2 °F 77% 30.16 in 10.0 mi Calm Calm - N/A   Clear
10:13 PM 64.4 °F 57.2 °F 77% 30.16 in 10.0 mi South 3.5 mph - N/A   Clear
10:32 PM 62.6 °F 55.4 °F 77% 30.16 in 10.0 mi Calm Calm - N/A   Clear
10:52 PM 55.4 °F 53.6 °F 94% 30.16 in 10.0 mi Calm Calm - N/A   Clear
11:12 PM 59.0 °F 55.4 °F 88% 30.16 in 10.0 mi Calm Calm - N/A   Clear
11:32 PM 60.8 °F 55.4 °F 82% 30.16 in 10.0 mi South 3.5 mph - N/A   Clear
11:53 PM 57.2 °F 53.6 °F 88% 30.15 in 10.0 mi Calm Calm - N/A   Clear